GW3924 Weather Reports


Display with metric or nautical units.
time (UTC)temp
F
wind
direction
speed
MPH
gust
MPH
rain 1hr
in
rain 24hr
in
rain mn
in
humidity
%
barometer
mb
20260504120317 59 112 0.0 1.0 0.00 0.00 0.00 81 1013.4
20260504110241 58 161 0.0 1.0 0.00 0.00 0.00 80 1013.1
20260504100200 59 95 0.0 1.0 0.00 0.00 0.00 77 1013.1
20260504090122 60 91 0.0 0.0 0.00 0.00 0.00 75 1013.2
20260504081552 59 106 0.0 0.0 0.00 0.00 0.00 79 1013.2
20260504081048 58 113 1.0 1.0 0.00 0.00 0.00 82 1013.4
20260504080545 58 110 0.0 0.0 0.00 0.00 0.00 81 1013.2
20260504050357 62 135 0.0 6.0 0.00 0.00 0.00 65 1012.5
20260504045855 62 28 0.0 2.0 0.00 0.00 0.00 66 1012.5
20260504045349 62 203 2.0 6.0 0.00 0.00 0.00 65 1012.8
20260504044847 62 121 1.0 2.0 0.00 0.00 0.00 66 1012.8
20260504044344 62 141 1.0 3.0 0.00 0.00 0.00 64 1012.9
20260504043841 62 188 2.0 6.0 0.00 0.00 0.00 64 1013.2
20260504043338 63 104 1.0 4.0 0.00 0.00 0.00 63 1013.1
20260504042835 63 220 1.0 2.0 0.00 0.00 0.00 63 1013.1
20260504042331 63 168 2.0 4.0 0.00 0.00 0.00 63 1013.4
20260504041828 63 135 3.0 6.0 0.00 0.00 0.00 62 1013.6
20260504041324 63 282 1.0 2.0 0.00 0.00 0.00 63 1013.5
20260504040820 63 163 3.0 4.0 0.00 0.00 0.00 62 1013.6
20260504040318 63 133 2.0 3.0 0.00 0.00 0.00 62 1013.5
20260504035814 63 96 1.0 6.0 0.00 0.00 0.00 62 1013.6
20260504035311 63 145 3.0 4.0 0.00 0.00 0.00 61 1013.5
20260504034808 63 152 2.0 3.0 0.00 0.00 0.00 62 1013.6
20260504034306 63 171 2.0 3.0 0.00 0.00 0.00 61 1013.7
20260504033803 63 204 2.0 3.0 0.00 0.00 0.00 61 1013.7
20260504033301 63 131 1.0 4.0 0.00 0.00 0.00 61 1013.8
20260504032757 63 153 2.0 3.0 0.00 0.00 0.00 59 1013.5
20260504032254 63 185 1.0 1.0 0.00 0.00 0.00 60 1013.7
20260504031751 64 133 1.0 3.0 0.00 0.00 0.00 59 1013.8
20260504031249 64 217 1.0 3.0 0.00 0.00 0.00 59 1013.8
20260504030744 64 120 1.0 4.0 0.00 0.00 0.00 58 1013.8
20260504030242 64 160 3.0 8.0 0.00 0.00 0.00 58 1013.8
20260504025738 64 212 1.0 3.0 0.00 0.00 0.00 58 1014.0
20260504025235 64 209 2.0 4.0 0.00 0.00 0.00 57 1014.0
20260504024732 64 168 1.0 4.0 0.00 0.00 0.00 57 1013.9
20260504024228 64 154 2.0 3.0 0.00 0.00 0.00 56 1014.0
20260504023725 64 93 0.0 3.0 0.00 0.00 0.00 56 1014.2
20260504023221 65 193 4.0 7.0 0.00 0.00 0.00 56 1014.2
20260504022712 65 290 1.0 4.0 0.00 0.00 0.00 56 1013.9
20260504022209 65 137 1.0 3.0 0.00 0.00 0.00 55 1013.8
20260504021706 65 204 2.0 7.0 0.00 0.00 0.00 55 1013.8
20260504021203 65 31 3.0 6.0 0.00 0.00 0.00 54 1013.7
20260504020700 65 323 1.0 4.0 0.00 0.00 0.00 55 1013.7
20260504020155 65 165 4.0 6.0 0.00 0.00 0.00 54 1013.7
20260504015653 65 156 2.0 4.0 0.00 0.00 0.00 54 1013.7
20260504015149 65 130 1.0 4.0 0.00 0.00 0.00 55 1013.7
20260504014644 65 21 3.0 6.0 0.00 0.00 0.00 54 1013.8
20260504014142 66 144 0.0 6.0 0.00 0.00 0.00 55 1013.9
20260504013640 66 207 3.0 3.0 0.00 0.00 0.00 54 1013.6
20260504013136 66 204 4.0 6.0 0.00 0.00 0.00 54 1013.5
20260504012633 66 38 2.0 6.0 0.00 0.00 0.00 54 1013.7
20260504012131 66 131 4.0 7.0 0.00 0.00 0.00 53 1013.7
20260504011628 66 202 5.0 7.0 0.00 0.00 0.00 54 1013.6
20260504011125 66 131 3.0 3.0 0.00 0.00 0.00 54 1013.9
20260504010620 66 75 1.0 2.0 0.00 0.00 0.00 55 1013.7
20260504010116 66 109 1.0 8.0 0.00 0.00 0.00 54 1013.6
20260504005613 66 203 0.0 4.0 0.00 0.00 0.00 54 1013.6
20260504005110 66 124 0.0 1.0 0.00 0.00 0.00 55 1013.8
20260504004608 67 156 1.0 2.0 0.00 0.00 0.00 53 1013.7
20260504004105 67 141 0.0 3.0 0.00 0.00 0.00 52 1013.7
20260504003600 67 50 2.0 3.0 0.00 0.00 0.00 51 1013.7
20260504003057 68 176 1.0 2.0 0.00 0.00 0.00 52 1013.9
20260504002554 68 157 3.0 3.0 0.00 0.00 0.00 51 1013.9
20260504002052 68 168 2.0 2.0 0.00 0.00 0.00 50 1014.0
20260504001549 68 71 1.0 2.0 0.00 0.00 0.00 51 1013.9
20260504001045 69 332 1.0 3.0 0.00 0.00 0.00 50 1014.0
20260504000543 69 124 1.0 2.0 0.00 0.00 0.00 50 1014.1
20260504000040 69 126 2.0 4.0 0.00 0.00 0.00 48 1014.0
20260503235538 69 186 2.0 3.0 0.00 0.00 0.00 48 1014.0
20260503235035 70 128 1.0 3.0 0.00 0.00 0.00 49 1014.2
20260503234532 70 132 2.0 4.0 0.00 0.00 0.00 48 1014.0
20260503234031 70 78 0.0 2.0 0.00 0.00 0.00 48 1014.1
20260503233526 70 200 2.0 2.0 0.00 0.00 0.00 50 1014.0
20260503233023 70 216 1.0 2.0 0.00 0.00 0.00 48 1014.2
20260503232520 71 90 1.0 2.0 0.00 0.00 0.00 48 1014.3
20260503232017 71 130 1.0 6.0 0.00 0.00 0.00 46 1014.2
20260503231515 71 295 1.0 4.0 0.00 0.00 0.00 45 1014.2
20260503231012 71 238 2.0 2.0 0.00 0.00 0.00 45 1014.3
20260503230508 71 198 2.0 6.0 0.00 0.00 0.00 45 1014.2
20260503230006 71 221 4.0 6.0 0.00 0.00 0.00 44 1014.2
20260503225503 71 126 1.0 4.0 0.00 0.00 0.00 45 1014.2
20260503224958 71 211 3.0 7.0 0.00 0.00 0.00 43 1014.5
20260503224455 71 177 4.0 8.0 0.00 0.00 0.00 43 1014.6
20260503223953 71 39 2.0 7.0 0.00 0.00 0.00 43 1014.3
20260503223451 71 183 2.0 4.0 0.00 0.00 0.00 44 1014.3
20260503222946 71 341 1.0 3.0 0.00 0.00 0.00 44 1014.3
20260503222445 71 109 0.0 2.0 0.00 0.00 0.00 45 1014.4
20260503221942 71 253 7.0 11.0 0.00 0.00 0.00 43 1014.5
20260503221440 71 198 3.0 7.0 0.00 0.00 0.00 41 1014.5
20260503220937 72 113 3.0 7.0 0.00 0.00 0.00 42 1014.5
20260503220433 72 186 3.0 7.0 0.00 0.00 0.00 41 1014.5
20260503215930 72 119 3.0 6.0 0.00 0.00 0.00 41 1014.4
20260503215427 72 127 2.0 4.0 0.00 0.00 0.00 43 1014.5
20260503214925 72 147 2.0 9.0 0.00 0.00 0.00 40 1014.5
20260503214422 73 175 1.0 4.0 0.00 0.00 0.00 40 1014.7
20260503213920 72 205 2.0 8.0 0.00 0.00 0.00 40 1014.7
20260503213418 73 165 7.0 10.0 0.00 0.00 0.00 40 1014.9
20260503212914 73 208 2.0 4.0 0.00 0.00 0.00 43 1014.8
20260503212412 72 204 5.0 7.0 0.00 0.00 0.00 39 1014.7
20260503211909 72 202 4.0 14.0 0.00 0.00 0.00 42 1014.8
20260503211405 73 228 0.0 2.0 0.00 0.00 0.00 42 1015.0
20260503210900 73 99 2.0 6.0 0.00 0.00 0.00 42 1015.1
20260503210358 73 316 2.0 6.0 0.00 0.00 0.00 39 1015.3
20260503205852 73 227 2.0 13.0 0.00 0.00 0.00 39 1015.5
20260503205350 71 275 4.0 13.0 0.00 0.00 0.00 39 1015.7
20260503204846 71 35 2.0 9.0 0.00 0.00 0.00 40 1015.6
20260503204343 71 233 2.0 9.0 0.00 0.00 0.00 40 1015.8
20260503203841 72 261 3.0 9.0 0.00 0.00 0.00 39 1016.1
20260503203338 72 177 4.0 6.0 0.00 0.00 0.00 38 1016.1
20260503202835 71 228 3.0 8.0 0.00 0.00 0.00 38 1016.2
20260503202333 71 241 7.0 10.0 0.00 0.00 0.00 39 1016.4
20260503201831 71 292 3.0 8.0 0.00 0.00 0.00 41 1016.6
20260503201327 71 222 3.0 8.0 0.00 0.00 0.00 39 1016.8
20260503200825 71 111 2.0 8.0 0.00 0.00 0.00 42 1017.1
20260503200321 72 269 1.0 4.0 0.00 0.00 0.00 44 1017.2
20260503195819 71 166 5.0 11.0 0.00 0.00 0.00 39 1017.2
20260503195315 72 243 3.0 4.0 0.00 0.00 0.00 41 1017.7
20260503194813 71 17 4.0 6.0 0.00 0.00 0.00 42 1017.5
20260503194308 71 290 3.0 3.0 0.00 0.00 0.00 42 1017.7
20260503193804 71 263 3.0 6.0 0.00 0.00 0.00 42 1017.9
20260503193300 70 23 4.0 8.0 0.00 0.00 0.00 42 1017.9
20260503192756 70 182 1.0 3.0 0.00 0.00 0.00 46 1018.2
20260503192252 69 143 4.0 6.0 0.00 0.00 0.00 41 1018.1
20260503191748 69 185 6.0 9.0 0.00 0.00 0.00 41 1018.3
20260503191246 69 139 3.0 6.0 0.00 0.00 0.00 43 1018.5
20260503190742 70 113 1.0 7.0 0.00 0.00 0.00 42 1018.7
20260503190239 70 229 2.0 4.0 0.00 0.00 0.00 43 1018.7
20260503185737 70 175 4.0 6.0 0.00 0.00 0.00 42 1018.8
20260503185232 70 273 1.0 6.0 0.00 0.00 0.00 44 1019.0
20260503184727 69 204 1.0 4.0 0.00 0.00 0.00 43 1019.2
20260503184223 69 151 4.0 6.0 0.00 0.00 0.00 42 1019.4
20260503183720 68 163 1.0 8.0 0.00 0.00 0.00 42 1019.5
20260503183217 68 265 4.0 6.0 0.00 0.00 0.00 46 1019.8
20260503182716 68 278 2.0 9.0 0.00 0.00 0.00 46 1019.8
20260503182214 68 251 2.0 6.0 0.00 0.00 0.00 45 1020.0
20260503181710 68 269 3.0 4.0 0.00 0.00 0.00 45 1020.1
20260503181207 67 301 3.0 7.0 0.00 0.00 0.00 44 1020.2
20260503180703 67 304 2.0 7.0 0.00 0.00 0.00 45 1020.4
20260503180202 68 341 2.0 4.0 0.00 0.00 0.00 45 1020.7
20260503175658 67 264 2.0 3.0 0.00 0.00 0.00 45 1020.5
20260503175156 67 263 2.0 6.0 0.00 0.00 0.00 47 1020.6
20260503174652 68 206 3.0 6.0 0.00 0.00 0.00 45 1020.9
20260503174149 66 127 4.0 6.0 0.00 0.00 0.00 46 1020.8
20260503173644 67 176 4.0 6.0 0.00 0.00 0.00 51 1021.0
20260503173141 66 15 2.0 6.0 0.00 0.00 0.00 49 1021.2
20260503172638 66 224 1.0 4.0 0.00 0.00 0.00 47 1021.2
20260503172135 66 281 4.0 8.0 0.00 0.00 0.00 47 1021.3
20260503171631 66 188 1.0 4.0 0.00 0.00 0.00 49 1021.3
20260503171129 66 291 1.0 3.0 0.00 0.00 0.00 50 1021.4
20260503170626 65 253 1.0 7.0 0.00 0.00 0.00 51 1021.6
20260503170122 64 208 6.0 9.0 0.00 0.00 0.00 50 1021.6
20260503150514 58 178 1.0 6.0 0.00 0.00 0.00 63 1023.1
20260503131356 51 228 2.0 2.0 0.00 0.00 0.00 74 1023.4
20260503130853 51 128 2.0 7.0 0.00 0.00 0.00 74 1023.5
20260503130351 50 212 1.0 8.0 0.00 0.00 0.00 76 1023.5